Time,TemperatureF,DewpointF,PressureIn,WindDirection,WindDirectionDegrees,WindSpeedMPH,WindSpeedGustMPH,Humidity,HourlyPrecipIn,Conditions,Clouds,dailyrainin,SoftwareType,DateUTC
2013-03-18 00:02:00,63.1,60.1,29.91,SSW,197,0.0,2.0,90,0.00,,,0.00,meteohub,2013-03-18 05:02:00,
2013-03-18 00:17:00,62.6,59.9,29.91,SSW,208,0.0,1.0,91,0.00,,,0.00,meteohub,2013-03-18 05:17:00,
2013-03-18 00:32:00,62.2,59.9,29.91,SSW,208,0.0,1.0,92,0.00,,,0.00,meteohub,2013-03-18 05:32:00,
2013-03-18 00:47:00,62.2,59.9,29.90,SSW,208,0.0,2.0,92,0.00,,,0.00,meteohub,2013-03-18 05:47:00,
2013-03-18 01:17:00,62.4,59.7,29.89,SSE,154,0.0,2.0,91,0.00,,,0.00,meteohub,2013-03-18 06:17:00,
2013-03-18 01:32:00,62.4,59.4,29.89,SSW,196,0.0,4.0,90,0.00,,,0.00,meteohub,2013-03-18 06:32:00,
2013-03-18 01:47:00,62.4,59.7,29.89,South,181,0.0,4.0,91,0.00,,,0.00,meteohub,2013-03-18 06:47:00,
2013-03-18 02:02:00,62.4,59.4,29.89,SSW,199,0.0,4.0,90,0.00,,,0.00,meteohub,2013-03-18 07:02:00,
2013-03-18 02:17:00,62.4,59.7,29.89,SSW,208,0.0,4.0,91,0.00,,,0.00,meteohub,2013-03-18 07:17:00,
2013-03-18 02:32:00,62.4,59.7,29.89,South,174,0.0,2.0,91,0.00,,,0.00,meteohub,2013-03-18 07:32:00,
2013-03-18 02:47:00,62.6,60.3,29.89,SE,146,1.0,3.0,92,0.00,,,0.00,meteohub,2013-03-18 07:47:00,
2013-03-18 03:02:00,62.8,60.4,29.88,SE,146,0.0,3.0,92,0.00,,,0.00,meteohub,2013-03-18 08:02:00,
2013-03-18 03:17:00,62.4,60.1,29.87,SE,146,0.0,2.0,92,0.00,,,0.00,meteohub,2013-03-18 08:17:00,
2013-03-18 03:32:00,62.2,60.3,29.88,South,181,0.0,3.0,93,0.00,,,0.00,meteohub,2013-03-18 08:32:00,
2013-03-18 03:47:00,62.1,60.1,29.88,South,181,0.0,1.0,93,0.00,,,0.00,meteohub,2013-03-18 08:47:00,
2013-03-18 04:02:00,62.4,61.0,29.87,South,176,0.0,4.0,95,0.00,,,0.00,meteohub,2013-03-18 09:02:00,
2013-03-18 04:17:00,63.0,61.5,29.87,SSE,151,1.0,5.0,95,0.00,,,0.00,meteohub,2013-03-18 09:17:00,
2013-03-18 04:32:00,63.1,61.3,29.87,East,95,1.0,3.0,94,0.00,,,0.00,meteohub,2013-03-18 09:32:00,
2013-03-18 04:47:00,63.7,62.2,29.87,ESE,104,3.0,5.0,95,0.00,,,0.00,meteohub,2013-03-18 09:47:00,
2013-03-18 05:02:00,63.9,62.4,29.88,ESE,117,3.0,4.0,95,0.00,,,0.00,meteohub,2013-03-18 10:02:00,
2013-03-18 05:17:00,64.2,62.8,29.88,East,101,2.0,5.0,95,0.00,,,0.00,meteohub,2013-03-18 10:17:00,
2013-03-18 05:47:00,64.4,62.6,29.89,ESE,113,0.0,3.0,94,0.00,,,0.00,meteohub,2013-03-18 10:47:00,
2013-03-18 06:02:00,64.6,62.8,29.90,ESE,112,3.0,3.0,94,0.00,,,0.00,meteohub,2013-03-18 11:02:00,
2013-03-18 06:32:00,64.8,63.0,29.91,SE,132,1.0,3.0,94,0.00,,,0.00,meteohub,2013-03-18 11:32:00,
2013-03-18 06:47:00,64.8,63.0,29.90,ESE,119,1.0,4.0,94,0.00,,,0.00,meteohub,2013-03-18 11:47:00,
2013-03-18 07:02:00,64.8,63.0,29.90,ESE,102,1.0,4.0,94,0.00,,,0.00,meteohub,2013-03-18 12:02:00,
2013-03-18 07:17:00,64.9,63.1,29.91,East,90,2.0,4.0,94,0.00,,,0.00,meteohub,2013-03-18 12:17:00,
2013-03-18 07:32:00,65.3,63.5,29.91,ESE,115,1.0,4.0,94,0.00,,,0.00,meteohub,2013-03-18 12:32:00,
2013-03-18 07:47:00,65.7,63.5,29.91,ESE,102,2.0,4.0,93,0.00,,,0.00,meteohub,2013-03-18 12:47:00,
2013-03-18 08:02:00,66.0,63.9,29.91,East,98,0.0,4.0,93,0.00,,,0.00,meteohub,2013-03-18 13:02:00,
2013-03-18 08:17:00,66.4,64.0,29.91,ENE,77,1.0,4.0,92,0.00,,,0.00,meteohub,2013-03-18 13:17:00,
2013-03-18 08:32:00,66.7,64.4,29.92,ESE,109,2.0,4.0,92,0.00,,,0.00,meteohub,2013-03-18 13:32:00,
2013-03-18 08:47:00,67.5,64.8,29.92,East,90,1.0,4.0,91,0.00,,,0.00,meteohub,2013-03-18 13:47:00,
2013-03-18 09:02:00,68.2,65.1,29.92,East,90,2.0,5.0,90,0.00,,,0.00,meteohub,2013-03-18 14:02:00,
2013-03-18 09:17:00,69.3,65.8,29.92,ESE,104,0.0,3.0,89,0.00,,,0.00,meteohub,2013-03-18 14:17:00,
2013-03-18 09:32:00,70.2,66.4,29.92,East,86,1.0,5.0,88,0.00,,,0.00,meteohub,2013-03-18 14:32:00,
2013-03-18 09:47:00,71.4,67.3,29.91,NE,43,2.0,5.0,87,0.00,,,0.00,meteohub,2013-03-18 14:47:00,
2013-03-18 10:17:00,73.4,68.0,29.91,SSW,198,3.0,7.0,83,0.00,,,0.00,meteohub,2013-03-18 15:17:00,
2013-03-18 10:32:00,73.0,68.0,29.91,SSE,151,1.0,8.0,84,0.00,,,0.00,meteohub,2013-03-18 15:32:00,
2013-03-18 10:47:00,73.8,68.5,29.91,South,181,4.0,7.0,84,0.00,,,0.00,meteohub,2013-03-18 15:47:00,
2013-03-18 11:02:00,74.3,68.7,29.91,SSE,157,5.0,11.0,83,0.00,,,0.00,meteohub,2013-03-18 16:02:00,
2013-03-18 11:17:00,74.8,68.9,29.90,South,179,4.0,13.0,82,0.00,,,0.00,meteohub,2013-03-18 16:17:00,
2013-03-18 11:32:00,74.8,68.9,29.90,SW,218,9.0,16.0,82,0.00,,,0.00,meteohub,2013-03-18 16:32:00,
2013-03-18 11:47:00,74.5,68.5,29.90,South,184,7.0,16.0,82,0.00,,,0.00,meteohub,2013-03-18 16:47:00,
2013-03-18 12:02:00,74.1,68.2,29.90,SSW,196,11.0,17.0,82,0.00,,,0.00,meteohub,2013-03-18 17:02:00,
2013-03-18 12:17:00,73.4,68.2,29.90,SSW,201,7.0,14.0,84,0.00,,,0.00,meteohub,2013-03-18 17:17:00,
2013-03-18 12:32:00,73.9,68.7,29.90,SSW,203,10.0,16.0,84,0.00,,,0.00,meteohub,2013-03-18 17:32:00,
2013-03-18 12:47:00,74.7,68.7,29.89,South,180,11.0,16.0,82,0.00,,,0.00,meteohub,2013-03-18 17:47:00,
2013-03-18 13:02:00,74.7,69.1,29.89,South,179,9.0,16.0,83,0.00,,,0.00,meteohub,2013-03-18 18:02:00,
2013-03-18 13:17:00,74.1,68.5,29.88,SSE,165,15.0,16.0,83,0.00,,,0.00,meteohub,2013-03-18 18:17:00,
2013-03-18 13:32:00,73.2,68.2,29.88,South,181,11.0,16.0,84,0.00,,,0.00,meteohub,2013-03-18 18:32:00,
2013-03-18 13:47:00,73.9,68.7,29.86,SSE,158,9.0,15.0,84,0.00,,,0.00,meteohub,2013-03-18 18:47:00,
2013-03-18 14:02:00,73.9,68.4,29.86,SSE,165,11.0,17.0,83,0.00,,,0.00,meteohub,2013-03-18 19:02:00,
2013-03-18 14:17:00,73.4,68.5,29.85,South,185,7.0,16.0,85,0.00,,,0.00,meteohub,2013-03-18 19:17:00,
2013-03-18 14:32:00,73.9,68.7,29.84,SSW,192,9.0,16.0,84,0.00,,,0.00,meteohub,2013-03-18 19:32:00,
2013-03-18 14:47:00,74.5,68.9,29.83,South,175,11.0,15.0,83,0.00,,,0.00,meteohub,2013-03-18 19:47:00,
2013-03-18 15:02:00,74.1,68.9,29.83,South,190,12.0,17.0,84,0.00,,,0.00,meteohub,2013-03-18 20:02:00,
2013-03-18 15:17:00,74.7,69.4,29.82,South,187,9.0,16.0,84,0.00,,,0.00,meteohub,2013-03-18 20:17:00,
2013-03-18 15:32:00,74.1,68.9,29.83,South,182,10.0,15.0,84,0.00,,,0.00,meteohub,2013-03-18 20:32:00,
2013-03-18 15:47:00,74.1,68.9,29.82,SSW,208,13.0,16.0,84,0.00,,,0.00,meteohub,2013-03-18 20:47:00,
2013-03-18 16:02:00,74.5,69.3,29.82,South,179,6.0,14.0,84,0.00,,,0.00,meteohub,2013-03-18 21:02:00,
2013-03-18 16:17:00,74.7,69.4,29.81,South,185,8.0,14.0,84,0.00,,,0.00,meteohub,2013-03-18 21:17:00,
2013-03-18 16:32:00,74.8,69.3,29.81,South,190,9.0,13.0,83,0.00,,,0.00,meteohub,2013-03-18 21:32:00,
2013-03-18 16:47:00,74.7,69.1,29.80,South,184,7.0,15.0,83,0.00,,,0.00,meteohub,2013-03-18 21:47:00,
2013-03-18 17:02:00,75.0,69.4,29.80,South,190,7.0,15.0,83,0.00,,,0.00,meteohub,2013-03-18 22:02:00,
2013-03-18 17:17:00,74.5,68.5,29.79,South,183,6.0,11.0,82,0.00,,,0.00,meteohub,2013-03-18 22:17:00,
2013-03-18 17:32:00,73.2,68.4,29.80,South,191,4.0,9.0,85,0.00,,,0.00,meteohub,2013-03-18 22:32:00,
2013-03-18 17:47:00,72.3,68.5,29.80,SSW,194,7.0,13.0,88,0.00,,,0.00,meteohub,2013-03-18 22:47:00,
2013-03-18 18:02:00,71.1,67.6,29.81,South,180,9.0,13.0,89,0.00,,,0.00,meteohub,2013-03-18 23:02:00,
2013-03-18 18:17:00,72.3,68.9,29.81,SSW,206,10.0,13.0,89,0.00,,,0.00,meteohub,2013-03-18 23:17:00,
2013-03-18 18:32:00,72.0,68.9,29.82,South,187,7.0,10.0,90,0.00,,,0.00,meteohub,2013-03-18 23:32:00,
2013-03-18 18:47:00,71.2,68.2,29.81,South,175,6.0,9.0,90,0.00,,,0.00,meteohub,2013-03-18 23:47:00,
2013-03-18 19:02:00,71.1,68.4,29.82,South,185,3.0,8.0,91,0.00,,,0.00,meteohub,2013-03-19 00:02:00,
2013-03-18 19:17:00,70.3,67.6,29.83,South,183,1.0,5.0,91,0.00,,,0.00,meteohub,2013-03-19 00:17:00,
2013-03-18 19:32:00,69.6,67.5,29.83,South,183,0.0,3.0,93,0.00,,,0.00,meteohub,2013-03-19 00:32:00,
2013-03-18 19:47:00,70.2,68.0,29.83,South,183,0.0,1.0,93,0.00,,,0.00,meteohub,2013-03-19 00:47:00,
2013-03-18 20:02:00,70.9,68.7,29.83,South,183,0.0,1.0,93,0.00,,,0.00,meteohub,2013-03-19 01:02:00,
2013-03-18 20:17:00,71.1,68.5,29.84,South,183,0.0,1.0,92,0.00,,,0.00,meteohub,2013-03-19 01:17:00,
2013-03-18 20:32:00,71.1,68.5,29.85,South,183,0.0,0.0,92,0.00,,,0.00,meteohub,2013-03-19 01:32:00,
2013-03-18 20:47:00,71.1,68.5,29.85,South,183,0.0,0.0,92,0.00,,,0.00,meteohub,2013-03-19 01:47:00,
2013-03-18 21:02:00,71.1,68.5,29.86,South,183,0.0,2.0,92,0.00,,,0.00,meteohub,2013-03-19 02:02:00,
2013-03-18 21:17:00,69.8,67.3,29.85,South,175,2.0,5.0,92,0.00,,,0.00,meteohub,2013-03-19 02:17:00,
2013-03-18 21:32:00,70.0,67.8,29.85,South,175,1.0,4.0,93,0.00,,,0.00,meteohub,2013-03-19 02:32:00,
2013-03-18 21:47:00,70.0,68.2,29.85,South,175,0.0,3.0,94,0.00,,,0.00,meteohub,2013-03-19 02:47:00,
2013-03-18 22:02:00,70.0,68.2,29.85,South,175,0.0,2.0,94,0.00,,,0.00,meteohub,2013-03-19 03:02:00,
2013-03-18 22:17:00,69.8,68.0,29.86,SSW,194,1.0,5.0,94,0.00,,,0.00,meteohub,2013-03-19 03:17:00,
2013-03-18 22:32:00,69.8,68.0,29.86,South,171,1.0,4.0,94,0.00,,,0.00,meteohub,2013-03-19 03:32:00,
2013-03-18 22:47:00,69.8,68.4,29.85,South,173,0.0,6.0,95,0.00,,,0.00,meteohub,2013-03-19 03:47:00,
2013-03-18 23:02:00,69.4,68.0,29.88,SSW,195,3.0,6.0,95,0.00,,,0.00,meteohub,2013-03-19 04:02:00,
2013-03-18 23:17:00,67.5,65.7,29.89,South,187,0.0,4.0,94,0.00,,,0.00,meteohub,2013-03-19 04:17:00,
2013-03-18 23:32:00,66.4,64.9,29.90,NNE,17,1.0,4.0,95,0.00,,,0.00,meteohub,2013-03-19 04:32:00,
2013-03-18 23:47:00,65.8,64.6,29.88,East,82,2.0,5.0,96,0.00,,,0.00,meteohub,2013-03-19 04:47:00,